Starlink 32379

operational
NORAD ID: 61851 Int'l Des: 2024-202 Owner: SPXS Country: US Constellation: starlink
LEOCIRCULAR

关于 Starlink 32379

正在加载描述...

实时位置

正在加载3D地球...

即将过境

高度历史

Altitude vs Time

uPlot chart will show altitude changes over time

两行轨道根数

1 61851U 24202G 25305.49816244 -.00000316 00000-0 -19764-5 0 9998
2 61851 43.0012 230.5947 0000855 246.9793 113.0969 15.27568036 55856
Epoch: Nov 1, 2025 • Age: 26 hours

当前状态

高度 483.0 km
速度 7.63 km/s
星下点 23.96°N, 128.81°E
发射日期 Nov 7, 2024
运行时间 0.9 years
类型 internet

技术详情

分类 Payload
质量 730.00 kg
干质量 700.00 kg
总质量 730.00 kg
长度 0.30 m
直径 4.10 m
跨度 29.00 m
形状 Box + pan
制造商 SPXS
平台类型 Starlink V2M
阶段状态 In Orbit
所有者/国家 SPXS/US

大型星座

Loading constellations...